Delta Virtual Airport Information Service

Portland International Airport

ICAO: KPDX Country: United States
Latitude: 45.5887 Longitude: -122.597
Latest Arrival : ASA1600 (KLAX-KPDX) Latest Departure : ACA8118 (KPDX-CYVR)


WX CaptureLIVE
Data provided by noaa.gov | Fetched at 02:25:36

METAR : KPDX 300653Z 18014G22KT 10SM -RA SCT023 OVC027 08/03 A2966 RMK AO2 SLP044 P0000 T00830033

TAF : KPDX 300653Z 18014G22KT 10SM -RA SCT023 OVC027 08/03 A2966 RMK AO2 SLP044 P0000 T00830033


Runway Data for KPDX
Data provided by openaviationdata.com

Runway ID Mag Var Hdg Length Elevation Surface ILS Freq ILS Id ILS Slope
3 18 26° 6995 ft 30 ft Asphalt -- -- --
10L 18 100° 7989 ft 30 ft Asphalt 111.3 IVDG 3
10R 18 100° 10985 ft 30 ft Asphalt 110.5 IPDX 3
21 18 206° 6995 ft 30 ft Asphalt 108.9 IGPO 0
28L 18 280° 10985 ft 30 ft Asphalt 110.5 IJMJ 3
28R 18 280° 7989 ft 30 ft Asphalt 111.3 IIAP 3

Portland International Airport, United States
Use only for reference purposes



Not for navigational purposes.